WST1790 MYGF-MYBS

Flight info

Callsign WST1790
Flight time 0h 18m
Altitude 14000
Route DCT
Aircraft E145/M-SDFGIRW/S

Departure

Time 2026-05-04 23:29
Airport Grand Bahama International Airport (MYGF)

Arrival

Time 2026-05-04 23:48
Airport South Bimini Airport (MYBS)
Time Latitude Longitude Altitude Speed Heading
2026-05-04 23:16 26.54882 -78.69760 12 ft 0 kts 187°
2026-05-04 23:24 26.54878 -78.69770 12 ft 4 kts 286°
2026-05-04 23:24 26.54907 -78.69797 12 ft 7 kts 318°
2026-05-04 23:24 26.54915 -78.69854 13 ft 10 kts 266°
2026-05-04 23:24 26.54914 -78.69934 13 ft 13 kts 271°
2026-05-04 23:25 26.54917 -78.70035 12 ft 16 kts 271°
2026-05-04 23:25 26.54920 -78.70162 12 ft 20 kts 270°
2026-05-04 23:25 26.54944 -78.70267 13 ft 16 kts 323°
2026-05-04 23:25 26.54968 -78.70378 13 ft 18 kts 271°
2026-05-04 23:26 26.54971 -78.70517 12 ft 21 kts 271°
2026-05-04 23:26 26.54977 -78.70679 12 ft 25 kts 271°
2026-05-04 23:26 26.54981 -78.70860 13 ft 28 kts 272°
2026-05-04 23:26 26.54995 -78.70988 13 ft 13 kts 303°
2026-05-04 23:27 26.55043 -78.71005 13 ft 0 kts
2026-05-04 23:27 26.55045 -78.71005 13 ft 1 kts
2026-05-04 23:27 26.55062 -78.71004 13 ft 3 kts
2026-05-04 23:28 26.55093 -78.71002 12 ft 6 kts
2026-05-04 23:28 26.55140 -78.70989 13 ft 9 kts 29°
2026-05-04 23:28 26.55182 -78.70933 12 ft 12 kts 60°
2026-05-04 23:28 26.55271 -78.70753 13 ft 67 kts 61°
2026-05-04 23:29 26.55591 -78.70116 50 ft 134 kts 62°
2026-05-04 23:29 26.56040 -78.69198 406 ft 172 kts 62°
2026-05-04 23:29 26.56467 -78.68106 1203 ft 182 kts 76°
2026-05-04 23:29 26.56420 -78.66802 1941 ft 206 kts 110°
2026-05-04 23:30 26.55512 -78.65762 2847 ft 230 kts 154°
2026-05-04 23:30 26.54073 -78.65642 3589 ft 253 kts 186°
2026-05-04 23:30 26.52644 -78.66273 4489 ft 259 kts 217°
2026-05-04 23:30 26.51596 -78.67490 5554 ft 253 kts 230°
2026-05-04 23:31 26.50623 -78.68836 6437 ft 254 kts 232°
2026-05-04 23:31 26.49726 -78.70142 7376 ft 251 kts 234°
2026-05-04 23:31 26.48826 -78.71493 8188 ft 254 kts 234°
2026-05-04 23:31 26.47864 -78.72820 9012 ft 256 kts 230°
2026-05-04 23:32 26.46801 -78.74050 10024 ft 251 kts 225°
2026-05-04 23:32 26.45517 -78.75030 10713 ft 261 kts 208°
2026-05-04 23:32 26.43999 -78.75630 11658 ft 259 kts 199°
2026-05-04 23:32 26.42468 -78.76135 12650 ft 251 kts 202°
2026-05-04 23:33 26.40973 -78.76668 13673 ft 242 kts 204°
2026-05-04 23:33 26.39552 -78.77217 14260 ft 251 kts 206°
2026-05-04 23:33 26.38003 -78.77881 14148 ft 286 kts 207°
2026-05-04 23:33 26.36295 -78.78664 14361 ft 307 kts 207°
2026-05-04 23:34 26.34462 -78.79500 14307 ft 328 kts 207°
2026-05-04 23:34 26.32519 -78.80429 14098 ft 345 kts 207°
2026-05-04 23:34 26.30543 -78.81393 14191 ft 349 kts 208°
2026-05-04 23:34 26.28539 -78.82359 14289 ft 348 kts 207°
2026-05-04 23:35 26.26561 -78.83324 14156 ft 350 kts 208°
2026-05-04 23:35 26.24549 -78.84347 13808 ft 357 kts 212°
2026-05-04 23:35 26.22531 -78.85503 13508 ft 364 kts 206°
2026-05-04 23:35 26.20420 -78.86424 13477 ft 360 kts 206°
2026-05-04 23:36 26.18296 -78.87374 13466 ft 354 kts 205°
2026-05-04 23:36 26.16341 -78.88237 13399 ft 326 kts 205°
2026-05-04 23:36 26.14454 -78.89069 12950 ft 314 kts 206°
2026-05-04 23:36 26.12678 -78.89857 12520 ft 303 kts 206°
2026-05-04 23:37 26.10936 -78.90629 12080 ft 295 kts 206°
2026-05-04 23:37 26.09240 -78.91377 11648 ft 288 kts 206°
2026-05-04 23:37 26.07609 -78.92097 11260 ft 281 kts 206°
2026-05-04 23:37 26.05996 -78.92810 10908 ft 273 kts 205°
2026-05-04 23:38 26.04413 -78.93507 10587 ft 266 kts 205°
2026-05-04 23:38 26.02858 -78.94194 10298 ft 258 kts 205°
2026-05-04 23:38 26.01342 -78.94862 10041 ft 251 kts 206°
2026-05-04 23:38 25.99840 -78.95525 9803 ft 243 kts 205°
2026-05-04 23:39 25.98413 -78.96153 9578 ft 237 kts 205°
2026-05-04 23:39 25.97011 -78.96771 9351 ft 232 kts 206°
2026-05-04 23:39 25.95613 -78.97387 9117 ft 228 kts 205°
2026-05-04 23:39 25.94274 -78.97977 8890 ft 224 kts 206°
2026-05-04 23:40 25.92942 -78.98564 8661 ft 221 kts 205°
2026-05-04 23:40 25.91578 -78.99032 8394 ft 220 kts 188°
2026-05-04 23:40 25.90205 -78.98778 7935 ft 224 kts 162°
2026-05-04 23:40 25.88842 -78.98354 7395 ft 222 kts 174°
2026-05-04 23:41 25.87438 -78.98109 6847 ft 224 kts 174°
2026-05-04 23:41 25.86016 -78.98041 6289 ft 221 kts 194°
2026-05-04 23:41 25.84795 -78.98758 5773 ft 217 kts 227°
2026-05-04 23:41 25.83923 -78.99985 5267 ft 226 kts 233°
2026-05-04 23:42 25.82991 -79.01317 4704 ft 239 kts 233°
2026-05-04 23:42 25.82005 -79.02728 4134 ft 249 kts 232°
2026-05-04 23:42 25.80998 -79.04166 3574 ft 258 kts 232°
2026-05-04 23:42 25.79967 -79.05639 3017 ft 265 kts 231°
2026-05-04 23:43 25.78915 -79.07141 2430 ft 251 kts 231°
2026-05-04 23:43 25.77957 -79.08507 1892 ft 234 kts 232°
2026-05-04 23:43 25.77055 -79.09793 1419 ft 221 kts 231°
2026-05-04 23:43 25.76221 -79.10983 1372 ft 200 kts 231°
2026-05-04 23:44 25.75443 -79.12092 1349 ft 185 kts 231°
2026-05-04 23:44 25.74739 -79.13097 1347 ft 171 kts 231°
2026-05-04 23:44 25.74083 -79.14030 1351 ft 160 kts 231°
2026-05-04 23:44 25.73451 -79.14928 1356 ft 155 kts 230°
2026-05-04 23:45 25.72847 -79.15789 1350 ft 144 kts 230°
2026-05-04 23:45 25.72283 -79.16591 1343 ft 133 kts 230°
2026-05-04 23:45 25.71741 -79.17358 1358 ft 143 kts 230°
2026-05-04 23:45 25.71142 -79.18241 1419 ft 168 kts 238°
2026-05-04 23:46 25.70590 -79.19292 1313 ft 169 kts 239°
2026-05-04 23:46 25.70131 -79.20312 1165 ft 158 kts 248°
2026-05-04 23:46 25.69895 -79.21327 810 ft 145 kts 265°
2026-05-04 23:46 25.69915 -79.22272 555 ft 133 kts 275°
2026-05-04 23:47 25.69975 -79.23277 416 ft 145 kts 277°
2026-05-04 23:47 25.70002 -79.24280 314 ft 145 kts 270°
2026-05-04 23:47 25.69985 -79.25282 134 ft 141 kts 272°
2026-05-04 23:47 25.69992 -79.26264 42 ft 127 kts 273°
2026-05-04 23:48 25.70001 -79.27067 39 ft 78 kts 271°
2026-05-04 23:48 25.69999 -79.27254 39 ft 7 kts 287°
2026-05-04 23:48 25.70042 -79.27282 39 ft 9 kts 356°
2026-05-04 23:48 25.70110 -79.27276 39 ft 11 kts 33°
2026-05-04 23:49 25.70121 -79.27254 39 ft 0 kts 92°